Location: B
(0.0000°N, 0.0000°E)
Time: 11:12:58
(UTC+02:00)

Amateur Radio Satellites - All Passes

Search period start: 24 May 2015 10:42
Search period end: 25 May 2015 10:42
Location: B, 0.0000°N, 0.0000°E

Satellite Date Start Highest point End Downlink Frequencies (MHz)
Time Altitude Azimuth
Oscar 11 24 May 10:56:24 11:00:27 43° 101° (E) 11:04:34 145.826/435.025
SRMSAT 24 May 10:56:28 11:02:26 78° 338° (NNW) 11:08:22 437.500
CANX-2 24 May 10:57:47 11:01:17 25° 280° (W) 11:04:43 2200.000
GOMX 1 24 May 11:00:18 11:03:59 20° 282° (WNW) 11:07:21 467.674
CUTE 1.7 + AOD 2 24 May 11:01:53 11:05:22 25° 280° (W) 11:08:48 437.475
UWE-3 24 May 11:13:57 11:18:02 48° 101° (E) 11:22:05 435.000/436.395/437.385
Cosmos 2504 24 May 11:15:45 11:24:32 68° 94° (E) 11:32:56 435.465 / 435.565
DELFI C3 24 May 11:17:34 11:21:31 59° 101° (E) 11:25:30 145.870
ISS 24 May 11:27:13 11:30:27 71° 234° (SW) 11:33:42 145.825
ANTELSAT 24 May 11:29:42 11:33:03 20° 80° (E) 11:36:36 437.575/2403.000
SEEDS 24 May 11:31:24 11:33:23 13° 279° (W) 11:35:07 437.485
FUNcube-1 24 May 11:33:01 11:37:10 67° 101° (E) 11:41:18 145.935
JUGNU 24 May 11:36:42 11:41:21 23° 344° (NNW) 11:45:54 437.505
HO-68 24 May 11:52:56 11:57:00 15° 282° (WNW) 12:00:29 435.675
CUBEBUG 2 24 May 11:56:18 12:00:01 28° 281° (W) 12:03:36 437.445
RS-15 24 May 12:00:46 12:04:39 11° 298° (WNW) 12:07:07 29.354- 29.394
NANOSAT C BR1 24 May 12:02:37 12:05:29 18° 80° (E) 12:08:31 145.865
TIGRISAT 24 May 12:02:56 12:07:31 56° 79° (E) 12:12:08 435.000
QB50P2 24 May 12:07:41 12:11:00 23° 80° (E) 12:14:27 145.880/145.840
ZACube-1 24 May 12:12:33 12:16:15 29° 281° (W) 12:19:51 437.345
ESTCUBE 1 24 May 12:16:17 12:19:43 22° 101° (E) 12:23:20 437.505/2401.250
POPSAT HIP 1 24 May 12:20:20 12:24:09 34° 79° (E) 12:28:02 437.405
UKube-1 24 May 12:20:45 12:25:03 65° 282° (WNW) 12:29:23 .
UNISAT 6 24 May 12:21:46 12:26:28 77° 260° (W) 12:31:09 437.425
DX 1 24 May 12:24:37 12:28:52 52° 282° (WNW) 12:33:08 434.975-435.025
DUCHIFAT 1 24 May 12:24:57 12:28:52 38° 79° (E) 12:32:50 145.980
VELOX 1 24 May 12:25:40 12:30:05 61° 102° (ESE) 12:34:30 145.980
HUMSAT D 24 May 12:33:38 12:37:28 39° 281° (W) 12:41:17 437.325/437.525
CUBEBUG 1 24 May 12:33:59 12:37:55 32° 101° (E) 12:41:54 437.445
50 SAT 24 May 12:40:48 12:44:36 62° 281° (W) 12:48:24 437.505
SRMSAT 24 May 12:46:40 12:51:46 29° 342° (NNW) 12:56:48 437.500
AISAT 24 May 12:56:11 13:00:29 46° 281° (WNW) 13:04:45 437.250
VERMONT LUNAR 24 May 12:56:26 12:59:40 85° 224° (SW) 13:02:55 437.305
BUGSAT 1 24 May 13:02:54 13:06:58 89° 82° (E) 13:11:03 437.445
QB50P1 24 May 13:04:27 13:08:35 49° 259° (WSW) 13:12:41 145.935-145.965
POLYITAN 1 24 May 13:04:34 13:08:42 48° 259° (W) 13:12:50 437.675
ANTELSAT 24 May 13:06:12 13:09:42 20° 260° (W) 13:13:03 437.575/2403.000
Cosmos 2504 24 May 13:13:23 13:17:51 14° 275° (W) 13:21:22 435.465 / 435.565
SPROUT 24 May 13:25:38 13:29:27 32° 101° (E) 13:33:19 437.525
PCSat 24 May 13:27:58 13:33:18 65° 70° (ENE) 13:38:39 145.827
JUGNU 24 May 13:29:06 13:31:08 12° 352° (N) 13:33:05 437.505
NANOSAT C BR1 24 May 13:38:20 13:41:12 17° 260° (W) 13:43:54 145.865
QB50P2 24 May 13:44:28 13:46:47 14° 260° (W) 13:48:51 145.880/145.840
CUSAT 1 24 May 13:51:00 13:55:47 38° 92° (E) 14:01:57 437.405
ESTCUBE 1 24 May 13:53:29 13:56:29 17° 280° (W) 13:59:16 437.505/2401.250
TISAT 1 24 May 14:01:21 14:05:35 74° 101° (E) 14:09:49 437.305
CUBEBUG 1 24 May 14:13:03 14:14:11 11° 280° (W) 14:14:56 437.445
GONETS M04 24 May 14:16:56 14:25:30 58° 94° (E) 14:34:09
PHONESAT 2.4 24 May 14:23:19 14:26:44 56° 223° (SW) 14:30:11 2401.200-2431.200
Oscar 19 24 May 14:37:34 14:42:13 35° 79° (ENE) 14:46:57 437.125/150
SRMSAT 24 May 14:38:37 14:41:33 14° 349° (N) 14:44:24 437.500
DANDE 24 May 14:40:18 14:45:07 87° 281° (W) 14:51:38 436.750
SO-50 24 May 14:53:17 14:56:04 16° 65° (ENE) 14:59:04 436.795
ITUPSAT 1 24 May 14:57:10 15:01:33 38° 102° (ESE) 15:06:02 437.325
Gurwin Techsat 1B 24 May 15:05:40 15:08:08 14° 80° (E) 15:10:59 435.225
BEESAT 24 May 15:06:43 15:11:20 52° 101° (ESE) 15:16:02 436.000
SWISSCUBE 24 May 15:14:33 15:19:19 76° 102° (ESE) 15:24:08 437.505
CUSAT 1 24 May 15:35:15 15:38:45 16° 284° (WNW) 15:42:16 437.405
Cosmos 2499 24 May 15:54:30 16:02:41 45° 95° (E) 16:10:33 435.465 / 435.565
O/OREOS (USA 219) 24 May 16:01:12 16:05:03 27° 106° (ESE) 16:08:56 437.305
KKS-1 24 May 16:02:18 16:06:10 30° 101° (E) 16:10:08 437.445
GONETS M04 24 May 16:16:54 16:22:22 17° 276° (W) 16:27:03
Oscar 19 24 May 16:18:39 16:21:29 14° 259° (W) 16:23:57 437.125/150
ITAMSAT 1 24 May 16:23:26 16:28:30 56° 258° (WSW) 16:33:33 435.822/435.867
AO-7 24 May 16:25:58 16:30:58 19° 76° (ENE) 16:36:34 29.400- 29.500
SO-50 24 May 16:32:27 16:36:32 27° 247° (WSW) 16:40:26 436.795
ITUPSAT 1 24 May 16:38:01 16:39:23 11° 280° (W) 16:40:20 437.325
Gurwin Techsat 1B 24 May 16:43:09 16:48:02 37° 258° (WSW) 16:52:51 435.225
JAS-2 24 May 16:53:01 17:00:03 41° 80° (E) 17:06:35 435.910
HORYU 2 24 May 17:06:46 17:11:08 51° 79° (E) 17:15:30 437.375
JUGNU 24 May 17:08:06 17:11:18 15° 12° (NNE) 17:14:34 437.505
STARS 24 May 17:13:51 17:18:04 45° 281° (WNW) 17:22:14 437.465
KKS-1 24 May 17:41:10 17:42:43 11° 280° (W) 17:43:55 437.445
O/OREOS (USA 219) 24 May 17:42:11 17:44:21 13° 287° (WNW) 17:46:13 437.305
Cosmos 2499 24 May 17:49:02 17:55:39 23° 274° (W) 18:01:33 435.465 / 435.565
BEESAT 3 24 May 18:00:42 18:03:51 23° 113° (ESE) 18:07:06 437.485
AO-7 24 May 18:15:37 18:23:42 56° 255° (WSW) 18:31:42 29.400- 29.500
SRMSAT 24 May 18:19:35 18:22:04 13° 10° (N) 18:24:39 437.500
JAS-2 24 May 18:38:53 18:44:50 24° 257° (WSW) 18:50:08 435.910
BEESAT 2 24 May 18:44:27 18:48:28 81° 113° (ESE) 18:52:32 435.950
MOZHAYETS 4 24 May 18:45:24 18:49:38 37° 281° (W) 18:53:52
JUGNU 24 May 18:55:38 19:00:50 33° 19° (NNE) 19:06:04 437.505
BEESAT 3 24 May 19:39:57 19:41:44 12° 295° (WNW) 19:43:17 437.485
PRISM 24 May 19:44:24 19:47:01 17° 101° (E) 19:49:50 437.425
AIST 2 24 May 19:53:04 19:57:10 56° 292° (WNW) 20:01:17 435.215
CUTE-I 24 May 19:53:06 19:58:23 73° 78° (ENE) 20:03:40 437.470
Cosmos 2491 24 May 20:01:45 20:09:24 36° 95° (E) 20:17:17 435.465 / 435.565
SRMSAT 24 May 20:07:05 20:11:56 26° 17° (NNE) 20:16:52 437.500
M-CUBED/EXP-1 PRIME 24 May 20:12:35 20:14:44 16° 105° (ESE) 20:17:06 437.505
Cubesat XI-IV 24 May 20:12:47 20:18:04 65° 257° (WSW) 20:23:19 437.490
CUBESAT XI-V 24 May 20:15:26 20:20:05 60° 281° (W) 20:24:44 437.345
STRAND 1 24 May 20:22:25 20:27:24 52° 102° (ESE) 20:32:26 437.568
AUBIESAT-1 24 May 20:23:13 20:25:45 20° 106° (ESE) 20:28:30 437.475
YUBILEINY 24 May 20:26:11 20:34:28 52° 86° (E) 20:42:54 435.215
JUGNU 24 May 20:44:04 20:49:56 90° 226° (SW) 20:55:51 437.505
PRISM 24 May 21:19:22 21:22:20 18° 281° (W) 21:25:10 437.425
RS-15 24 May 21:21:17 21:33:20 76° 69° (ENE) 21:45:39 29.354- 29.394
DOVE 4 24 May 21:23:50 21:25:47 13° 79° (E) 21:28:08 437.250
BRITE-PL 24 May 21:27:22 21:31:38 45° 78° (ENE) 21:36:15 437.365/2234.400
CANX-2 24 May 21:29:56 21:32:25 16° 80° (E) 21:35:08 2200.000
CUTE 1.7 + AOD 2 24 May 21:33:57 21:36:26 16° 80° (E) 21:39:08 437.475
GOMX 1 24 May 21:44:30 21:48:51 43° 78° (ENE) 21:53:31 467.674
AIST 1 24 May 21:45:07 21:49:17 54° 94° (E) 21:53:26
M-CUBED/EXP-1 PRIME 24 May 21:48:22 21:49:33 11° 282° (WNW) 21:50:31 437.505
HO-68 24 May 21:54:09 22:00:57 47° 77° (ENE) 22:07:48 435.675
SRMSAT 24 May 21:55:24 22:01:19 68° 21° (NNE) 22:07:18 437.500
Cosmos 2491 24 May 21:58:48 22:06:09 29° 275° (W) 22:13:11 435.465 / 435.565
SEEDS 24 May 21:59:59 22:03:40 29° 80° (E) 22:07:23 437.485
COMPASS 1 24 May 22:17:35 22:21:33 39° 79° (E) 22:25:30 437.405
YUBILEINY 24 May 22:25:19 22:31:16 19° 264° (W) 22:36:35 435.215
AAUSAT CUBESAT 2 24 May 22:32:02 22:36:10 54° 79° (ENE) 22:40:15 437.432
CUBEBUG 2 24 May 22:32:50 22:35:59 19° 79° (E) 22:39:22 437.445
JUGNU 24 May 22:33:49 22:39:04 33° 199° (SSW) 22:44:19 437.505
ZACube-1 24 May 22:47:27 22:50:09 16° 80° (E) 22:53:04 437.345
CINEMA 3 24 May 22:57:22 23:02:04 83° 258° (WSW) 23:06:58 145.822/145.860
DOVE 4 24 May 22:59:12 23:03:22 32° 260° (W) 23:07:42 437.250
ISS 24 May 23:00:43 23:03:55 62° 126° (SE) 23:07:06 145.825
CANX-2 24 May 23:04:56 23:08:15 21° 260° (W) 23:11:23 2200.000
Oscar 11 24 May 23:05:09 23:09:27 59° 79° (E) 23:13:44 145.826/435.025
CUTE 1.7 + AOD 2 24 May 23:08:57 23:12:14 21° 260° (W) 23:15:22 437.475
DELFI C3 24 May 23:18:14 23:22:15 61° 79° (E) 23:26:14 145.870
UWE-3 24 May 23:24:46 23:29:22 75° 79° (E) 23:34:01 435.000/436.395/437.385
Cosmos 2504 24 May 23:27:43 23:34:54 85° 86° (E) 23:42:29 435.465 / 435.565
AISAT 24 May 23:35:12 23:36:19 11° 80° (E) 23:37:47 437.250
SEEDS 24 May 23:38:13 23:39:21 11° 260° (W) 23:40:07 437.485
RS-15 24 May 23:38:14 23:46:16 18° 243° (WSW) 23:53:11 29.354- 29.394
FUNcube-1 24 May 23:42:28 23:47:01 86° 259° (WSW) 23:51:36 145.935
ANTELSAT 24 May 23:43:08 23:46:44 27° 101° (E) 23:50:24 437.575/2403.000
HO-68 24 May 23:43:38 23:48:34 19° 257° (WSW) 23:53:04 435.675
SRMSAT 24 May 23:44:54 23:50:35 44° 200° (SSW) 23:56:17 437.500
NANOSAT C BR1 25 May 00:08:39 00:11:54 22° 101° (E) 00:15:17 145.865
CUBEBUG 2 25 May 00:08:55 00:12:32 22° 260° (W) 00:16:02 437.445
QB50P2 25 May 00:14:13 00:17:50 28° 101° (E) 00:21:32 145.880/145.840
TIGRISAT 25 May 00:16:38 00:20:54 85° 98° (E) 00:25:10 435.000
ZACube-1 25 May 00:22:41 00:26:22 24° 260° (W) 00:29:56 437.345
PCSat 25 May 00:23:54 00:26:12 13° 112° (ESE) 00:28:52 145.827
JUGNU 25 May 00:25:16 00:28:38 15° 192° (SSW) 00:31:57 437.505
POPSAT HIP 1 25 May 00:26:51 00:30:50 42° 101° (E) 00:34:52 437.405
VERMONT LUNAR 25 May 00:28:53 00:32:07 60° 138° (SE) 00:35:19 437.305
UKube-1 25 May 00:29:57 00:34:07 47° 258° (WSW) 00:38:15 .
ESTCUBE 1 25 May 00:30:11 00:34:13 34° 79° (E) 00:38:18 437.505/2401.250
DUCHIFAT 1 25 May 00:31:01 00:35:05 47° 101° (E) 00:39:10 145.980
DX 1 25 May 00:34:45 00:38:46 37° 259° (WSW) 00:42:44 434.975-435.025
UNISAT 6 25 May 00:35:59 00:40:06 46° 281° (W) 00:44:11 437.425
VELOX 1 25 May 00:37:47 00:42:12 89° 257° (WSW) 00:46:36 145.980
50 SAT 25 May 00:38:18 00:42:19 69° 259° (WSW) 00:46:18 437.505
HUMSAT D 25 May 00:39:05 00:43:01 34° 259° (W) 00:46:55 437.325/437.525
CUBEBUG 1 25 May 00:44:16 00:48:22 44° 79° (E) 00:52:31 437.445
GONETS M04 25 May 01:00:49 01:02:11 11° 83° (E) 01:04:40
BUGSAT 1 25 May 01:06:25 01:10:39 80° 283° (WNW) 01:14:51 437.445
AISAT 25 May 01:08:54 01:12:49 30° 259° (W) 01:16:39 437.250
QB50P1 25 May 01:11:12 01:15:11 39° 281° (W) 01:19:09 145.935-145.965
POLYITAN 1 25 May 01:11:42 01:15:38 38° 281° (W) 01:19:34 437.675
ANTELSAT 25 May 01:22:02 01:23:25 11° 280° (W) 01:24:30 437.575/2403.000
SPROUT 25 May 01:33:38 01:37:41 42° 79° (E) 01:41:46 437.525
SRMSAT 25 May 01:36:01 01:40:11 19° 194° (SSW) 01:44:18 437.500
NANOSAT C BR1 25 May 01:45:19 01:47:37 14° 280° (W) 01:49:41 145.865
DANDE 25 May 01:48:42 01:53:32 25° 78° (ENE) 01:57:34 436.750
QB50P2 25 May 01:52:26 01:53:39 11° 280° (W) 01:54:30 145.880/145.840
PHONESAT 2.4 25 May 02:02:12 02:05:42 71° 317° (NW) 02:09:10 2401.200-2431.200
PCSat 25 May 02:04:32 02:09:34 39° 290° (WNW) 02:14:33 145.827
TISAT 1 25 May 02:07:20 02:11:33 90° 257° (WSW) 02:15:46 437.305
ESTCUBE 1 25 May 02:10:31 02:11:00 10° 260° (W) 02:11:05 437.505/2401.250
CUSAT 1 25 May 02:37:34 02:42:55 51° 267° (W) 02:46:54 437.405
GONETS M04 25 May 02:50:29 02:59:12 76° 266° (W) 03:07:52
SO-50 25 May 03:05:05 03:08:45 26° 113° (ESE) 03:12:36 436.795
Oscar 19 25 May 03:10:50 03:15:58 89° 283° (WNW) 03:21:06 437.125/150
ITUPSAT 1 25 May 03:19:23 03:24:10 76° 78° (ENE) 03:28:55 437.325
ITAMSAT 1 25 May 03:20:08 03:24:10 24° 101° (ESE) 03:28:23 435.822/435.867
BEESAT 25 May 03:28:46 03:33:33 79° 259° (WSW) 03:38:18 436.000
SRMSAT 25 May 03:28:51 03:30:18 11° 185° (S) 03:31:43 437.500
DANDE 25 May 03:32:26 03:36:28 18° 270° (W) 03:39:37 436.750
SWISSCUBE 25 May 03:36:57 03:41:37 54° 258° (WSW) 03:46:15 437.505
Gurwin Techsat 1B 25 May 03:41:48 03:46:43 40° 102° (ESE) 03:51:43 435.225
STARS 25 May 03:52:03 03:53:01 11° 80° (E) 03:54:21 437.465
Cosmos 2499 25 May 04:04:18 04:11:10 52° 86° (E) 04:18:33 435.465 / 435.565
JUGNU 25 May 04:06:39 04:08:52 12° 172° (S) 04:11:10 437.505
O/OREOS (USA 219) 25 May 04:11:39 04:15:55 46° 75° (ENE) 04:20:15 437.305
KKS-1 25 May 04:14:40 04:18:56 46° 79° (ENE) 04:23:13 437.445
JAS-2 25 May 04:27:51 04:30:53 16° 104° (ESE) 04:34:27 435.910
SO-50 25 May 04:46:40 04:49:12 14° 295° (WNW) 04:51:30 436.795
AO-7 25 May 04:50:24 04:57:26 32° 105° (ESE) 05:04:44 29.400- 29.500
ITAMSAT 1 25 May 04:59:33 05:03:33 22° 281° (W) 05:07:22 435.822/435.867
SRMSAT 25 May 05:19:16 05:20:40 11° 175° (S) 05:22:08 437.500
HORYU 2 25 May 05:19:30 05:23:53 78° 102° (ESE) 05:28:19 437.375
Gurwin Techsat 1B 25 May 05:24:14 05:26:38 13° 280° (W) 05:28:37 435.225
STARS 25 May 05:25:26 05:29:23 31° 259° (WSW) 05:33:16 437.465
MOZHAYETS 4 25 May 05:26:43 05:29:35 17° 80° (E) 05:32:40
JUGNU 25 May 05:54:01 05:58:41 23° 164° (SSE) 06:03:25 437.505
BEESAT 3 25 May 05:55:10 05:58:25 25° 67° (ENE) 06:01:43 437.485
Cosmos 2499 25 May 06:00:38 06:04:28 14° 262° (W) 06:07:43 435.465 / 435.565
JAS-2 25 May 06:10:57 06:15:49 34° 280° (W) 06:21:02 435.910
BEESAT 2 25 May 06:39:49 06:43:48 88° 249° (WSW) 06:47:45 435.950
AO-7 25 May 06:42:40 06:50:06 35° 285° (WNW) 06:57:20 29.400- 29.500
CUTE-I 25 May 06:55:20 06:57:47 14° 101° (E) 07:00:38 437.470
CUBESAT XI-V 25 May 07:00:05 07:01:20 11° 80° (E) 07:02:59 437.345
MOZHAYETS 4 25 May 07:03:02 07:06:42 22° 259° (W) 07:10:12
SRMSAT 25 May 07:06:42 07:10:48 19° 166° (SSE) 07:14:57 437.500
Cubesat XI-IV 25 May 07:13:30 07:17:41 24° 101° (ESE) 07:22:03 437.490
BEESAT 3 25 May 07:35:13 07:36:17 11° 246° (WSW) 07:37:04 437.485
JUGNU 25 May 07:42:06 07:48:00 58° 159° (SSE) 07:53:55 437.505
PRISM 25 May 07:48:02 07:50:49 18° 80° (E) 07:53:45 437.425
AIST 2 25 May 07:52:13 07:56:07 42° 248° (WSW) 07:59:57 435.215
M-CUBED/EXP-1 PRIME 25 May 08:13:35 08:17:22 25° 77° (ENE) 08:21:06 437.505
AUBIESAT-1 25 May 08:23:54 08:27:52 29° 77° (ENE) 08:31:45 437.475
CUTE-I 25 May 08:32:48 08:37:46 38° 282° (WNW) 08:42:42 437.470
CUBESAT XI-V 25 May 08:34:34 08:38:42 32° 259° (W) 08:42:45 437.345
Cosmos 2491 25 May 08:34:35 08:43:18 70° 86° (E) 08:52:01 435.465 / 435.565
Cubesat XI-IV 25 May 08:53:30 08:57:40 22° 281° (W) 09:01:40 437.490
SRMSAT 25 May 08:54:43 09:00:24 44° 160° (SSE) 09:06:03 437.500
STRAND 1 25 May 08:55:08 09:00:10 62° 257° (WSW) 09:05:10 437.568
YUBILEINY 25 May 08:59:20 09:08:12 84° 274° (W) 09:16:59 435.215
RS-15 25 May 09:04:56 09:15:49 64° 112° (ESE) 09:26:32 29.354- 29.394
PRISM 25 May 09:23:32 09:26:09 16° 259° (W) 09:28:33 437.425
JUGNU 25 May 09:31:17 09:37:06 51° 339° (NNW) 09:42:53 437.505
CANX-2 25 May 09:36:16 09:39:11 19° 100° (E) 09:42:16 2200.000
CUTE 1.7 + AOD 2 25 May 09:40:12 09:43:06 19° 100° (E) 09:46:11 437.475
DOVE 4 25 May 09:43:46 09:47:27 24° 99° (E) 09:51:08 437.250
HO-68 25 May 09:45:58 09:52:26 39° 103° (ESE) 09:59:02 435.675
M-CUBED/EXP-1 PRIME 25 May 09:48:49 09:52:01 17° 255° (WSW) 09:54:54 437.505
Cosmos 2504 25 May 09:50:52 09:53:35 12° 98° (E) 09:57:15 435.465 / 435.565
AIST 1 25 May 09:51:37 09:56:00 81° 84° (E) 10:00:26
BRITE-PL 25 May 09:54:05 09:59:27 75° 281° (W) 10:04:26 437.365/2234.400
AUBIESAT-1 25 May 09:59:44 10:02:26 15° 255° (WSW) 10:04:48 437.475
SEEDS 25 May 10:05:36 10:09:23 34° 101° (E) 10:13:14 437.485
GOMX 1 25 May 10:08:31 10:13:35 86° 279° (W) 10:18:18 467.674
COMPASS 1 25 May 10:22:22 10:26:20 46° 101° (E) 10:30:22 437.405
ISS 25 May 10:34:18 10:37:18 34° 54° (NE) 10:40:19 145.825
